Find Kosmos-2098

NORAD ID: 20774 Int'l Des: 1990-078 Owner: PVO Country: SU operational
LEOPOLAR

Current View

Loading 3D Globe...

About Kosmos-2098

Description loading...

Upcoming Passes

Passes for default location (London). Set your location on the main map for personalized predictions.

Altitude History

Loading altitude history...

Two-Line Element Set

1 20774U 90078A 26151.15607860 .00002894 00000-0 20685-3 0 9999
2 20774 82.9398 93.9744 0742310 269.7457 81.8707 13.90161276770151
Epoch: May 31, 2026 • Age: 9 hours

Current Status

Altitude 1082.8 km
Velocity 7.24 km/s
Sub-Earth Point 21.56°N, 176.5°W
Launch Date Aug 28, 1990
Age 35.7 years
Type other

Technical Details

Classification Payload
Mass 585.00 kg
Dry Mass 585.00 kg
Total Mass 585.00 kg
Length 2.00 m
Diameter 2.00 m
Span 2.00 m
Shape Sphere
Manufacturer YUZH
Bus Type Vektor
Phase Status In Orbit
Owner/State PVO/SU

Most Searched